Regional Weather Roundup
Issued by NWS Charleston, SC

Current Version | Previous Version | Text Only | Print | Product List | Glossary Off
Versions: 1 2 3 4 5 6 7 8 9 10 11 12 13 14 15 16 17 18 19 20 21 22 23 24 25 26 27 28 29 30 31 32 33 34 35 36 37 38 39 40 41 42 43 44 45 46 47 48 49 50
000 ASUS42 KCHS 251510 RWRCHS REGIONAL WEATHER ROUNDUP NATIONAL WEATHER SERVICE CHARLESTON SC 1000 AM EST TUE NOV 25 2014 NOTE: "FAIR" INDICATES FEW OR NO CLOUDS BELOW 12,000 FEET WITH NO SIGNIFICANT WEATHER AND/OR OBSTRUCTIONS TO VISIBILITY. NOT ALL STATIONS ARE QUALITY CONTROLLED BY THE NATIONAL WEATHER SERVICE. USE DATA WITH CAUTION...ESPECIALLY DEWPOINT OBSERVATIONS. SCZ027-030-031-034>040-042>050-251600- ...SOUTHEAST SOUTH CAROLINA... CITY SKY/WX TMP DP RH WIND PRES REMARKS N CHARLESTON RAIN 63 62 97 SW3 30.10R VSB 1 WATERFRONT PRK N/A 61 N/A N/A S3 N/A MOUNT PLEASANT CLOUDY 63 63 100 CALM 30.08S JOHNS ISLAND HVY RAIN 63 63 100 CALM 30.10R VSB 1/2 PINOPOLIS NOT AVBL MONCKS CORNER LGT RAIN 63 63 100 S3 30.09R SUMMERVILLE RAIN 61 61 100 CALM 30.09R BEAUFORT MCAS LGT RAIN 61 60 97 SE3 30.08R FOG BEAUFORT ARPT RAIN 61 61 100 CALM 30.06F HILTON HEAD IS DRIZZLE 63 63 100 CALM 30.09S WALTERBORO LGT RAIN 63 N/A N/A S5 30.09R ALLENDALE LGT RAIN 59 57 94 NW5 30.06S ...SOUTHERN MIDLANDS AND PEE DEE... CITY SKY/WX TMP DP RH WIND PRES REMARKS GEORGETOWN NOT AVBL KINGSTREE NOT AVBL ORANGEBURG LGT RAIN 63 61 93 W5 30.06R FOG BARNWELL LGT RAIN 57 57 100 W3 30.09R AIKEN CLOUDY 55 50 82 CALM 30.12R MANNING NOT AVBL COLUMBIA CLOUDY 61 55 81 W3 30.07R SUMTER DRIZZLE 62 60 94 SW5 30.06R FOG FLORENCE LGT RAIN 61 59 93 S5 30.07R FOG MYRTLE BEACH LGT RAIN 63 61 94 S6 30.16R FOG N MYRTLE BEACH RAIN 63 61 93 S6 30.10R FOG $$ GAZ063-065-086>088-099>101-113>116-118-119-134>141-150-251600- ...SOUTHEAST GEORGIA... CITY SKY/WX TMP DP RH WIND PRES REMARKS SAVANNAH ARPT LGT RAIN 63 61 94 SW3 30.09R FOG HUNTER AAF LGT RAIN 63 63 100 SW2 30.07R FORT STEWART RAIN 62 61 96 SW1 30.08R FOG STATESBORO NOT AVBL SYLVANIA RAIN 57 55 95 NW5 30.10R CLAXTON RAIN 59 59 100 CALM 30.12R ...CSRA...CENTRAL AND FAR SOUTHEAST GEORGIA... CITY SKY/WX TMP DP RH WIND PRES REMARKS THOMSON CLOUDY 56 48 74 CALM 30.13R AUGUSTA-BUSH LGT RAIN 57 48 72 SW3 30.09R AUGUSTA-DANIEL CLOUDY 57 43 59 CALM 30.09R SWAINSBORO LGT RAIN 57 57 100 CALM 30.10R VIDALIA RAIN 55 54 94 CALM 30.11R HAZLEHURST RAIN 56 56 100 N3 30.09R ALMA RAIN 61 60 97 CALM 30.07F FOG WAYCROSS RAIN 64 64 98 CALM 30.09F JESUP RAIN 64 63 94 CALM 30.11R BAXLEY LGT RAIN 59 55 88 CALM 30.10S BRUNSWICK CLOUDY 63 61 94 CALM 30.10R SAINT SIMONS CLOUDY 64 61 90 N5 30.08R $$ SCZ027-028-034-036>038-045-046-048>050-GAZ119-141-251600- ...LAKE AND SUPPLEMENTAL COASTAL OBSERVATIONS... STATION/POSITION TIME TEMP WIND PRES WAVE SWELL AIR SEA DIR/SP/G HT/PER HT/PER/DIR (UTC) (F) (DEG/KT/KT) (MB) (FT/S) (FT/S/D) UPR LAKE MARION NOT AVBL WINYAH BAY 1400 62 190/ 2 1018.0S LAKE MURRAY 1400 60 300/ 2/ 6 1016.9S ACE BASIN NERRS 1400 61 CALM 1018.0S FORT PULASKI 1500 60 130/ 2/ 3 1019.1R SAPELO ISLAND NOT AVBL $$ ANZ835-935-AMZ111-154-330-350-352-354-370-450-454-472-251600- ...C-MAN AND BUOY OBSERVATIONS... STATION/POSITION TIME TEMP WIND PRES WAVE SWELL AIR SEA DIR/SP/G HT/PER HT/PER/DIR (UTC) (F) (DEG/KT/KT) (MB) (FT/S) (FT/S/D) FOLLY BEACH CMAN 1400 60 90/ 4/ 5 1019.0R BUOY 41004 1500 69 75 330/ 12/ 16 1018.2R 5/ 9 3/ 9 BUOY 41008 1500 64 65 20/ 8/ 10 1018.2R 3/ 9 3/120/ 9 CAPERS NEARSHORE 1400 59 220/ 4/ 4 N/A FRIPP NEARSHORE NOT AVBL STATION/POSITION TIME TEMP WIND PRES WAVE SWELL AIR SEA DIR/SP/G HT/PER HT/PER/DIR (UTC) (F) (DEG/KT/KT) (MB) (FT/S) (FT/S/D) 5E ST. MARYS GA 1400 62 N/A 4/10 2/100/11 FRYING PAN BUOY 1500 67 71 310/ 16/ 17 1018.5R 4/ 9 3/140/ 9 BUOY 41025 1500 74 260/ 12/ 14 1017.5R 6/ 9 5/130/ 9 CAPE LOOKOUT NC 1400 64 270/ 6/ 6 1018.0R BUOY 41002 1411 75 73 190/ 14/ 16 1020.4S 6/ 9 5/120/ 9 BUOY 41010 1500 78 78 160/ 17/ 21 1017.5F 6/ 9 5/120/ 9 ST AUGUSTINE FL 1500 63 360/ 21/ 23 1018.1R $$

USA.gov is the U.S. government's official web portal to all federal, state and local government web resources and services.